Regional Weather Roundup
Issued by NWS

Home | Current Version | Previous Version | Graphics & Text | Print | Product List | Glossary On
Versions: 1 2 3 4 5 6 7 8 9 10 11 12 13 14 15 16 17 18 19 20 21 22 23 24 25 26 27 28 29 30 31 32 33 34 35 36 37 38 39 40 41 42 43 44 45 46 47 48 49 50
000
ASUS43 KFSD 050202
RWRSD

WEATHER ROUNDUP FOR SOUTH DAKOTA
NATIONAL WEATHER SERVICE SIOUX FALLS SD
900 PM CDT MON MAY 04 2015

NOTE: "FAIR" INDICATES FEW OR NO CLOUDS BELOW 12,000 FEET WITH NO
SIGNIFICANT WEATHER AND/OR OBSTRUCTIONS TO VISIBILITY.


SDZ001>005-009-010-012>017-050300-
NORTHWEST AND NORTH CENTRAL SOUTH DAKOTA

CITY           SKY/WX    TMP DP  RH WIND       PRES   REMARKS
BUFFALO          N/A     52  32  46 SE17      30.01S
FAITH            N/A     52  31  44 SE12      30.10F
MOBRIDGE       CLOUDY    59  30  33 E3        30.10F
$$

SDZ012>016-024>037-041>051-057-063-072>074-050300-
SOUTHWEST AND SOUTH CENTRAL SOUTH DAKOTA

CITY           SKY/WX    TMP DP  RH WIND       PRES   REMARKS
RAPID CTY ARPT CLOUDY    53  38  56 S7        30.09F
PIERRE         CLOUDY    59  23  25 NE10      30.08F
CUSTER         CLOUDY    44  31  60 VRB5      30.12F
ELLSWORTH AFB  CLOUDY    54  37  53 S14       30.09S
PHILIP         PTCLDY    55  24  30 E7        30.08F
PINE RIDGE     MOCLDY    51  34  52 E5        30.09S
WINNER         CLOUDY    61  30  31 NE5       30.09S
$$

SDZ004>011-016>023-039-040-050300-
NORTHEAST SOUTH DAKOTA

CITY           SKY/WX    TMP DP  RH WIND       PRES   REMARKS
ABERDEEN       CLOUDY    62  28  27 E7        30.13F
WATERTOWN      MOCLDY    60  28  29 E8        30.14F
BROOKINGS      MOCLDY    64  27  24 E12       30.14R
SISSETON         N/A     61  25  25 NE5       30.15R
$$

SDZ017-020-022-023-036>040-048>070-050300-
SOUTHEAST SOUTH DAKOTA

CITY           SKY/WX    TMP DP  RH WIND       PRES   REMARKS
SIOUX FALLS    CLOUDY    62  30  29 E8        30.12R
HURON          MOCLDY    60  28  29 E6        30.10S
MITCHELL       CLOUDY    63  30  28 SE7       30.10R
YANKTON        CLOUDY    63  41  45 SE7       30.10R
$$

ABBREVIATIONS USED IN REMARKS
   TC - TEMPERATURE IN CELSIUS
  WCI - WIND CHILL INDEX
   HX - HEAT INDEX
  VSB - VISIBILITY



USA.gov is the U.S. government's official web portal to all federal, state and local government web resources and services.